IGO142 VABB-VIDP

Flight info

Callsign IGO142
Flight time N/A
Altitude 35000
Route ANOLI2A ISRIS Q1 UKASO UKASO6G
Aircraft A320/L-SDE2E3FGHIJ1RWXY/LB1

Departure

Time 2026-04-29 20:19
Airport Chhatrapati Shivaji Maharaj International Airport (VABB)

Arrival

Time N/A
Airport Indira Gandhi International Airport (VIDP)
Time Latitude Longitude Altitude Speed Heading
2026-04-29 19:37 19.09461 72.87326 33 ft 0 kts 316°
2026-04-29 20:08 19.09453 72.87335 32 ft 4 kts 315°
2026-04-29 20:08 19.09434 72.87356 32 ft 4 kts 309°
2026-04-29 20:09 19.09418 72.87379 33 ft 4 kts 300°
2026-04-29 20:09 19.09407 72.87404 33 ft 4 kts 273°
2026-04-29 20:09 19.09410 72.87421 33 ft 0 kts 229°
2026-04-29 20:13 19.09408 72.87419 33 ft 2 kts 229°
2026-04-29 20:13 19.09380 72.87385 33 ft 10 kts 228°
2026-04-29 20:13 19.09300 72.87362 33 ft 14 kts 178°
2026-04-29 20:14 19.09232 72.87300 33 ft 15 kts 248°
2026-04-29 20:14 19.09143 72.87261 33 ft 13 kts 179°
2026-04-29 20:14 19.09075 72.87269 33 ft 6 kts 154°
2026-04-29 20:14 19.09061 72.87280 33 ft 1 kts 139°
2026-04-29 20:15 19.09052 72.87298 33 ft 3 kts 102°
2026-04-29 20:15 19.09053 72.87342 33 ft 9 kts 90°
2026-04-29 20:15 19.09052 72.87424 33 ft 14 kts 90°
2026-04-29 20:15 19.09053 72.87540 33 ft 18 kts 89°
2026-04-29 20:16 19.09054 72.87670 33 ft 14 kts 89°
2026-04-29 20:16 19.09039 72.87784 32 ft 14 kts 129°
2026-04-29 20:16 19.08999 72.87804 32 ft 0 kts 170°
2026-04-29 20:17 19.08996 72.87804 32 ft 2 kts 172°
2026-04-29 20:17 19.08962 72.87808 32 ft 8 kts 174°
2026-04-29 20:17 19.08908 72.87778 32 ft 11 kts 221°
2026-04-29 20:17 19.08888 72.87696 32 ft 13 kts 267°
2026-04-29 20:18 19.08883 72.87591 32 ft 12 kts 269°
2026-04-29 20:18 19.08883 72.87575 32 ft 0 kts 269°
2026-04-29 20:18 19.08883 72.87540 32 ft 30 kts 269°
2026-04-29 20:18 19.08870 72.86978 35 ft 121 kts 269°
2026-04-29 20:19 19.08856 72.85809 30 ft 189 kts 270°
2026-04-29 20:19 19.08895 72.84387 797 ft 190 kts 272°
2026-04-29 20:19 19.08953 72.83153 2405 ft 143 kts 273°
2026-04-29 20:19 19.09075 72.82219 3705 ft 118 kts 275°
2026-04-29 20:20 19.09102 72.81379 4512 ft 118 kts 268°
2026-04-29 20:20 19.08977 72.80432 4920 ft 152 kts 260°